• In Hungary
  • List of Countries
  • For 7 days
  • Water Temperature
  • Satellite Maps
  • Weather Map
  • News
  • Weather Widgets
  • user-avatar
    Login

    Hourly Weather SanFrancisco

    Today, 19 June, Tuesday

    Time Temperature Precipitation Wind Pressure Humidity
    00:00 +13°C° 0.5 mm 2 mps 583 mmHg 81%
    01:00 +13°C° 0.5 mm 1 mps 583 mmHg 82%
    02:00 +12°C° 0.2 mm 1 mps 583 mmHg 83%
    03:00 +12°C° 0.2 mm 1 mps 583 mmHg 84%
    04:00 +12°C° 0.2 mm 1 mps 582 mmHg 84%
    05:00 +13°C° 0.1 mm 1 mps 583 mmHg 82%
    06:00 +13°C° 0.1 mm 2 mps 583 mmHg 81%
    07:00 +14°C° 0.1 mm 2 mps 584 mmHg 79%
    08:00 +15°C° 0 mm 2 mps 584 mmHg 71%
    09:00 +17°C° 0 mm 2 mps 585 mmHg 63%
    10:00 +19°C° 0 mm 3 mps 586 mmHg 55%
    11:00 +19°C° 0.2 mm 3 mps 586 mmHg 56%
    12:00 +19°C° 0.2 mm 3 mps 586 mmHg 57%
    13:00 +20°C° 0.2 mm 3 mps 585 mmHg 58%
    14:00 +19°C° 0.3 mm 3 mps 585 mmHg 61%
    15:00 +19°C° 0.3 mm 3 mps 584 mmHg 64%
    16:00 +18°C° 0.3 mm 3 mps 584 mmHg 67%
    17:00 +17°C° 0.3 mm 2 mps 583 mmHg 71%
    18:00 +15°C° 0.3 mm 2 mps 583 mmHg 75%
    19:00 +14°C° 0.3 mm 2 mps 583 mmHg 79%
    20:00 +13°C° 0.3 mm 2 mps 583 mmHg 79%
    21:00 +13°C° 0.3 mm 2 mps 583 mmHg 80%
    22:00 +12°C° 0.3 mm 2 mps 583 mmHg 80%
    23:00 +12°C° 0.1 mm 1 mps 583 mmHg 81%

    Tomorrow, 20 June, Wednesday

    Time Temperature Precipitation Wind Pressure Humidity
    00:00 +12°C° 0.1 mm 1 mps 583 mmHg 82%
    01:00 +12°C° 0.1 mm 1 mps 583 mmHg 83%
    02:00 +11°C° 0 mm 1 mps 582 mmHg 83%
    03:00 +11°C° 0 mm 1 mps 582 mmHg 84%
    04:00 +11°C° 0 mm 1 mps 582 mmHg 84%
    05:00 +12°C° 0 mm 1 mps 582 mmHg 82%
    06:00 +12°C° 0 mm 1 mps 583 mmHg 80%
    07:00 +13°C° 0 mm 1 mps 584 mmHg 78%
    08:00 +15°C° 0.1 mm 2 mps 585 mmHg 72%
    09:00 +16°C° 0.1 mm 2 mps 585 mmHg 66%
    10:00 +18°C° 0.1 mm 2 mps 586 mmHg 61%
    11:00 +18°C° 0.2 mm 2 mps 586 mmHg 59%
    12:00 +19°C° 0.2 mm 2 mps 586 mmHg 58%
    13:00 +19°C° 0.2 mm 2 mps 585 mmHg 57%
    14:00 +19°C° 0.4 mm 2 mps 585 mmHg 61%
    15:00 +18°C° 0.4 mm 2 mps 584 mmHg 65%
    16:00 +18°C° 0.4 mm 2 mps 583 mmHg 68%
    17:00 +16°C° 0.4 mm 2 mps 583 mmHg 73%
    18:00 +15°C° 0.4 mm 2 mps 583 mmHg 77%
    19:00 +14°C° 0.4 mm 1 mps 583 mmHg 82%
    20:00 +13°C° 0.4 mm 1 mps 583 mmHg 82%
    21:00 +13°C° 0.4 mm 1 mps 583 mmHg 81%
    22:00 +13°C° 0.4 mm 2 mps 584 mmHg 81%
    23:00 +12°C° 0.5 mm 1 mps 583 mmHg 81%

    Day after tomorrow, 21 June, Thursday

    Time Temperature Precipitation Wind Pressure Humidity
    00:00 +12°C° 0.5 mm 1 mps 583 mmHg 81%
    01:00 +12°C° 0.5 mm 1 mps 583 mmHg 82%
    02:00 +12°C° 0.7 mm 1 mps 583 mmHg 82%
    03:00 +11°C° 0.7 mm 1 mps 582 mmHg 83%
    04:00 +11°C° 0.7 mm 1 mps 582 mmHg 84%
    05:00 +12°C° 0.4 mm 1 mps 583 mmHg 82%
    06:00 +13°C° 0.4 mm 1 mps 584 mmHg 80%
    07:00 +13°C° 0.4 mm 1 mps 584 mmHg 78%
    08:00 +15°C° 0.2 mm 2 mps 585 mmHg 72%
    09:00 +17°C° 0.2 mm 2 mps 586 mmHg 67%
    10:00 +18°C° 0.2 mm 2 mps 587 mmHg 62%
    11:00 +19°C° 0.1 mm 2 mps 586 mmHg 60%
    12:00 +19°C° 0.1 mm 2 mps 586 mmHg 58%
    13:00 +20°C° 0.1 mm 2 mps 586 mmHg 56%
    14:00 +20°C° 0.2 mm 2 mps 585 mmHg 58%
    15:00 +19°C° 0.2 mm 2 mps 585 mmHg 59%
    16:00 +19°C° 0.2 mm 2 mps 584 mmHg 60%
    17:00 +17°C° 0.1 mm 2 mps 584 mmHg 67%
    18:00 +16°C° 0.1 mm 2 mps 583 mmHg 74%
    19:00 +14°C° 0.1 mm 1 mps 583 mmHg 81%
    20:00 +13°C° 0 mm 1 mps 583 mmHg 80%
    21:00 +13°C° 0 mm 2 mps 583 mmHg 80%
    22:00 +13°C° 0 mm 2 mps 583 mmHg 79%
    23:00 +12°C° 0.2 mm 2 mps 583 mmHg 80%

    22 June, Friday

    Time Temperature Precipitation Wind Pressure Humidity
    00:00 +12°C° 0.2 mm 1 mps 583 mmHg 80%
    01:00 +12°C° 0.2 mm 1 mps 582 mmHg 81%
    02:00 +12°C° 0 mm 1 mps 582 mmHg 81%
    03:00 +11°C° 0 mm 1 mps 582 mmHg 81%
    04:00 +11°C° 0 mm 1 mps 582 mmHg 82%
    05:00 +12°C° 0.1 mm 1 mps 582 mmHg 79%
    06:00 +13°C° 0.1 mm 1 mps 583 mmHg 76%
    07:00 +14°C° 0.1 mm 1 mps 584 mmHg 74%
    08:00 +15°C° 0.1 mm 2 mps 585 mmHg 70%
    09:00 +17°C° 0.1 mm 2 mps 585 mmHg 66%
    10:00 +18°C° 0.1 mm 2 mps 586 mmHg 62%
    11:00 +19°C° 0.2 mm 2 mps 586 mmHg 61%
    12:00 +19°C° 0.2 mm 2 mps 585 mmHg 60%
    13:00 +20°C° 0.2 mm 2 mps 585 mmHg 59%
    14:00 +20°C° 0.3 mm 2 mps 585 mmHg 59%
    15:00 +20°C° 0.3 mm 2 mps 584 mmHg 59%
    16:00 +20°C° 0.3 mm 2 mps 584 mmHg 60%
    17:00 +18°C° 0.3 mm 2 mps 583 mmHg 66%
    18:00 +16°C° 0.3 mm 2 mps 583 mmHg 73%
    19:00 +14°C° 0.3 mm 1 mps 583 mmHg 79%
    20:00 +14°C° 0.3 mm 1 mps 583 mmHg 79%
    21:00 +14°C° 0.3 mm 1 mps 583 mmHg 79%
    22:00 +14°C° 0.3 mm 1 mps 583 mmHg 78%
    23:00 +13°C° 0.4 mm 1 mps 583 mmHg 78%

    23 June, Saturday

    Time Temperature Precipitation Wind Pressure Humidity
    00:00 +13°C° 0.4 mm 1 mps 582 mmHg 79%
    01:00 +13°C° 0.4 mm 1 mps 582 mmHg 79%
    02:00 +13°C° 0.4 mm 1 mps 582 mmHg 79%
    03:00 +13°C° 0.4 mm 1 mps 582 mmHg 79%
    04:00 +12°C° 0.4 mm 1 mps 582 mmHg 78%
    05:00 +13°C° 0.3 mm 1 mps 582 mmHg 77%
    06:00 +13°C° 0.3 mm 1 mps 583 mmHg 76%
    07:00 +14°C° 0.3 mm 1 mps 583 mmHg 74%
    08:00 +15°C° 0.2 mm 2 mps 584 mmHg 70%
    09:00 +16°C° 0.2 mm 2 mps 585 mmHg 66%
    10:00 +18°C° 0.2 mm 2 mps 585 mmHg 61%
    11:00 +18°C° 0.3 mm 2 mps 585 mmHg 60%
    12:00 +19°C° 0.3 mm 2 mps 585 mmHg 59%
    13:00 +19°C° 0.3 mm 2 mps 585 mmHg 58%
    14:00 +19°C° 0.5 mm 2 mps 584 mmHg 62%
    15:00 +18°C° 0.5 mm 2 mps 583 mmHg 66%
    16:00 +17°C° 0.5 mm 2 mps 583 mmHg 70%
    17:00 +16°C° 0.5 mm 1 mps 583 mmHg 74%
    18:00 +15°C° 0.5 mm 1 mps 582 mmHg 77%
    19:00 +14°C° 0.5 mm 1 mps 582 mmHg 81%
    20:00 +14°C° 0.5 mm 1 mps 583 mmHg 80%
    21:00 +14°C° 0.5 mm 1 mps 583 mmHg 80%
    22:00 +14°C° 0.5 mm 1 mps 583 mmHg 80%
    23:00 +13°C° 0.5 mm 1 mps 583 mmHg 81%

    24 June, Sunday

    Time Temperature Precipitation Wind Pressure Humidity
    00:00 +13°C° 0.5 mm 1 mps 582 mmHg 81%
    01:00 +13°C° 0.5 mm 1 mps 582 mmHg 81%
    02:00 +12°C° 0.3 mm 1 mps 582 mmHg 81%
    03:00 +12°C° 0.3 mm 1 mps 582 mmHg 81%
    04:00 +12°C° 0.3 mm 1 mps 581 mmHg 81%
    05:00 +12°C° 1.3 mm 1 mps 582 mmHg 82%
    06:00 +12°C° 1.3 mm 1 mps 582 mmHg 82%
    07:00 +12°C° 1.3 mm 1 mps 583 mmHg 82%
    08:00 +12°C° 2.1 mm 1 mps 583 mmHg 82%
    09:00 +13°C° 2.1 mm 1 mps 583 mmHg 82%
    10:00 +13°C° 2.1 mm 1 mps 584 mmHg 83%
    11:00 +13°C° 2.8 mm 1 mps 583 mmHg 84%
    12:00 +13°C° 2.8 mm 1 mps 583 mmHg 86%
    13:00 +13°C° 2.8 mm 1 mps 582 mmHg 87%
    14:00 +13°C° 1.2 mm 1 mps 582 mmHg 84%
    15:00 +14°C° 1.2 mm 1 mps 582 mmHg 82%
    16:00 +15°C° 1.2 mm 1 mps 582 mmHg 79%
    17:00 +14°C° 0.6 mm 1 mps 582 mmHg 82%
    18:00 +13°C° 0.6 mm 1 mps 582 mmHg 85%
    19:00 +12°C° 0.6 mm 1 mps 582 mmHg 88%
    20:00 +12°C° 0.5 mm 1 mps 582 mmHg 87%
    21:00 +12°C° 0.5 mm 1 mps 582 mmHg 86%
    22:00 +11°C° 0.5 mm 1 mps 582 mmHg 85%
    23:00 +11°C° 0.2 mm 1 mps 582 mmHg 85%
    Show more